Wetterdaten: Woche 08.06.15 - 14.06.15 (KW24)
Datum Zeit Temp. A. Feuchte A. Luftdruck Regen Wind Richtung Sonnenschein ET UV Solar Taupunkt Windchill Windben Empfang
08.06.2015 00:00 19,7 C 72 % 1019,2 hPa 0,0 l/m 0,0 km/h (0 Bft) N 0,00 h 0,000 mm 0,0 UV-I 0 W/m 14,5 C 19,7 C 0,0 km/h (0 Bft) 0,00 %
08.06.2015 01:00 18,4 C 82 % 1019,1 hPa 0,0 l/m 0,0 km/h (0 Bft) N 0,00 h 0,000 mm 0,0 UV-I 0 W/m 15,3 C 18,4 C 0,0 km/h (0 Bft) 0,00 %
08.06.2015 02:00 18,1 C 82 % 1018,7 hPa 0,0 l/m 0,0 km/h (0 Bft) N 0,00 h 0,000 mm 0,0 UV-I 0 W/m 15,0 C 18,1 C 0,0 km/h (0 Bft) 0,00 %
08.06.2015 03:00 17,2 C 85 % 1018,1 hPa 0,0 l/m 0,0 km/h (0 Bft) N 0,00 h 0,000 mm 0,0 UV-I 0 W/m 14,7 C 17,2 C 0,0 km/h (0 Bft) 0,00 %
08.06.2015 04:00 15,7 C 89 % 1018,8 hPa 0,0 l/m 0,0 km/h (0 Bft) N 0,00 h 0,000 mm 0,0 UV-I 0 W/m 13,9 C 15,7 C 0,0 km/h (0 Bft) 0,00 %
08.06.2015 05:00 15,1 C 91 % 1018,9 hPa 0,0 l/m 0,0 km/h (0 Bft) N 0,00 h 0,000 mm 0,0 UV-I 0 W/m 13,6 C 15,1 C 0,0 km/h (0 Bft) 0,00 %
08.06.2015 06:00 16,9 C 83 % 1018,6 hPa 0,0 l/m 0,0 km/h (0 Bft) N 1,00 h 0,000 mm 0,0 UV-I 0 W/m 14,0 C 16,9 C 0,0 km/h (0 Bft) 0,00 %
08.06.2015 07:00 19,8 C 69 % 1017,8 hPa 0,0 l/m 0,0 km/h (0 Bft) N 1,00 h 0,000 mm 0,0 UV-I 0 W/m 13,9 C 19,8 C 0,0 km/h (0 Bft) 0,00 %
08.06.2015 08:00 20,3 C 65 % 1018,1 hPa 0,0 l/m 0,6 km/h (0 Bft) O-NO 1,00 h 0,000 mm 0,0 UV-I 0 W/m 13,5 C 20,3 C 4,0 km/h (1 Bft) 0,00 %
08.06.2015 09:00 22,6 C 60 % 1017,8 hPa 0,0 l/m 1,4 km/h (1 Bft) N 1,00 h 0,000 mm 0,0 UV-I 0 W/m 14,4 C 22,6 C 4,0 km/h (1 Bft) 0,00 %
08.06.2015 10:00 21,3 C 63 % 1017,9 hPa 0,0 l/m 0,0 km/h (0 Bft) N 0,00 h 0,000 mm 0,0 UV-I 0 W/m 14,0 C 21,3 C 0,0 km/h (0 Bft) 0,00 %
08.06.2015 11:00 22,3 C 63 % 1017,4 hPa 0,0 l/m 0,0 km/h (0 Bft) N 0,00 h 0,000 mm 0,0 UV-I 0 W/m 14,9 C 22,3 C 0,0 km/h (0 Bft) 0,00 %
08.06.2015 12:00 22,4 C 62 % 1017,1 hPa 0,0 l/m 0,0 km/h (0 Bft) N 0,00 h 0,000 mm 0,0 UV-I 0 W/m 14,8 C 22,4 C 0,0 km/h (0 Bft) 0,00 %
08.06.2015 13:00 22,7 C 63 % 1017,0 hPa 0,0 l/m 0,6 km/h (0 Bft) SW 0,00 h 0,000 mm 0,0 UV-I 0 W/m 15,3 C 22,7 C 4,0 km/h (1 Bft) 0,00 %
08.06.2015 14:00 26,4 C 51 % 1015,7 hPa 0,0 l/m 1,8 km/h (1 Bft) N 1,00 h 0,000 mm 0,0 UV-I 0 W/m 15,4 C 26,4 C 4,0 km/h (1 Bft) 0,00 %
08.06.2015 15:00 24,3 C 53 % 1015,3 hPa 0,0 l/m 0,0 km/h (0 Bft) SO 1,00 h 0,000 mm 0,0 UV-I 0 W/m 14,1 C 24,3 C 0,0 km/h (0 Bft) 0,00 %
08.06.2015 16:00 27,3 C 48 % 1014,6 hPa 0,0 l/m 5,8 km/h (2 Bft) N 1,00 h 0,000 mm 0,0 UV-I 0 W/m 15,3 C 27,3 C 7,9 km/h (2 Bft) 0,00 %
08.06.2015 17:00 26,7 C 46 % 1013,9 hPa 0,0 l/m 0,0 km/h (0 Bft) N 1,00 h 0,000 mm 0,0 UV-I 0 W/m 14,1 C 26,7 C 0,0 km/h (0 Bft) 0,00 %
08.06.2015 18:00 25,0 C 54 % 1013,4 hPa 0,0 l/m 0,0 km/h (0 Bft) N-NO 0,00 h 0,000 mm 0,0 UV-I 0 W/m 15,0 C 25,0 C 0,0 km/h (0 Bft) 0,00 %
08.06.2015 19:00 21,3 C 64 % 1014,0 hPa 0,0 l/m 1,4 km/h (1 Bft) N 0,00 h 0,000 mm 0,0 UV-I 0 W/m 14,2 C 21,3 C 4,0 km/h (1 Bft) 0,00 %
08.06.2015 20:00 19,5 C 72 % 1013,9 hPa 0,0 l/m 0,3 km/h (0 Bft) SW 0,00 h 0,000 mm 0,0 UV-I 0 W/m 14,3 C 19,5 C 4,0 km/h (1 Bft) 0,00 %
08.06.2015 21:00 17,1 C 90 % 1016,1 hPa 7,1 l/m 7,9 km/h (2 Bft) N 0,00 h 0,000 mm 0,0 UV-I 0 W/m 15,4 C 16,4 C 11,9 km/h (2 Bft) 0,00 %
08.06.2015 22:00 15,5 C 96 % 1017,0 hPa 29,2 l/m 0,0 km/h (0 Bft) S-SW 0,00 h 0,000 mm 0,0 UV-I 0 W/m 14,9 C 15,5 C 0,0 km/h (0 Bft) 0,00 %
08.06.2015 23:00 14,9 C 98 % 1018,2 hPa 8,9 l/m 4,7 km/h (1 Bft) N 0,00 h 0,000 mm 0,0 UV-I 0 W/m 14,6 C 14,9 C 7,9 km/h (2 Bft) 0,00 %
09.06.2015 00:00 14,2 C 98 % 1017,2 hPa 0,0 l/m 0,0 km/h (0 Bft) N 0,00 h 0,000 mm 0,0 UV-I 0 W/m 13,9 C 14,2 C 0,0 km/h (0 Bft) 0,00 %
09.06.2015 01:00 14,3 C 99 % 1018,0 hPa 0,0 l/m 0,0 km/h (0 Bft) N 0,00 h 0,000 mm 0,0 UV-I 0 W/m 14,1 C 14,3 C 0,0 km/h (0 Bft) 0,00 %
09.06.2015 02:00 14,4 C 99 % 1017,5 hPa 0,0 l/m 0,3 km/h (0 Bft) N 0,00 h 0,000 mm 0,0 UV-I 0 W/m 14,2 C 14,4 C 4,0 km/h (1 Bft) 0,00 %
09.06.2015 03:00 14,3 C 99 % 1017,2 hPa 0,0 l/m 0,0 km/h (0 Bft) N 0,00 h 0,000 mm 0,0 UV-I 0 W/m 14,1 C 14,3 C 0,0 km/h (0 Bft) 0,00 %
09.06.2015 04:00 14,4 C 99 % 1016,8 hPa 0,0 l/m 0,0 km/h (0 Bft) N 0,00 h 0,000 mm 0,0 UV-I 0 W/m 14,2 C 14,4 C 0,0 km/h (0 Bft) 0,00 %
09.06.2015 05:00 14,4 C 99 % 1016,8 hPa 0,9 l/m 0,0 km/h (0 Bft) N 0,00 h 0,000 mm 0,0 UV-I 0 W/m 14,2 C 14,4 C 0,0 km/h (0 Bft) 0,00 %
09.06.2015 06:00 14,2 C 99 % 1017,6 hPa 0,0 l/m 0,0 km/h (0 Bft) N 0,00 h 0,000 mm 0,0 UV-I 0 W/m 14,0 C 14,2 C 0,0 km/h (0 Bft) 0,00 %
09.06.2015 07:00 13,6 C 99 % 1018,1 hPa 0,0 l/m 0,0 km/h (0 Bft) N 0,00 h 0,000 mm 0,0 UV-I 0 W/m 13,4 C 13,6 C 0,0 km/h (0 Bft) 0,00 %
09.06.2015 08:00 14,0 C 99 % 1018,0 hPa 0,0 l/m 0,0 km/h (0 Bft) N 0,00 h 0,000 mm 0,0 UV-I 0 W/m 13,8 C 14,0 C 0,0 km/h (0 Bft) 0,00 %
09.06.2015 09:00 15,4 C 91 % 1018,1 hPa 0,0 l/m 0,0 km/h (0 Bft) W 1,00 h 0,000 mm 0,0 UV-I 0 W/m 13,9 C 15,4 C 0,0 km/h (0 Bft) 0,00 %
09.06.2015 10:00 15,3 C 88 % 1018,9 hPa 0,0 l/m 1,8 km/h (1 Bft) N 0,00 h 0,000 mm 0,0 UV-I 0 W/m 13,3 C 15,3 C 4,0 km/h (1 Bft) 0,00 %
09.06.2015 11:00 15,0 C 82 % 1019,2 hPa 0,0 l/m 0,0 km/h (0 Bft) N 0,00 h 0,000 mm 0,0 UV-I 0 W/m 12,0 C 15,0 C 0,0 km/h (0 Bft) 0,00 %
09.06.2015 12:00 16,7 C 71 % 1019,0 hPa 0,0 l/m 0,0 km/h (0 Bft) N 0,00 h 0,000 mm 0,0 UV-I 0 W/m 11,4 C 16,7 C 0,0 km/h (0 Bft) 0,00 %
09.06.2015 13:00 17,6 C 67 % 1019,2 hPa 0,0 l/m 0,3 km/h (0 Bft) W 0,00 h 0,000 mm 0,0 UV-I 0 W/m 11,4 C 17,6 C 4,0 km/h (1 Bft) 0,00 %
09.06.2015 14:00 17,4 C 68 % 1018,8 hPa 0,0 l/m 5,5 km/h (1 Bft) W-NW 0,00 h 0,000 mm 0,0 UV-I 0 W/m 11,4 C 17,4 C 7,9 km/h (2 Bft) 0,00 %
09.06.2015 15:00 18,3 C 72 % 1018,7 hPa 0,0 l/m 3,2 km/h (1 Bft) N 0,00 h 0,000 mm 0,0 UV-I 0 W/m 13,2 C 18,3 C 4,0 km/h (1 Bft) 0,00 %
09.06.2015 16:00 15,1 C 80 % 1019,6 hPa 0,0 l/m 0,0 km/h (0 Bft) N 0,00 h 0,000 mm 0,0 UV-I 0 W/m 11,7 C 15,1 C 0,0 km/h (0 Bft) 0,00 %
09.06.2015 17:00 15,4 C 77 % 1019,2 hPa 0,0 l/m 0,0 km/h (0 Bft) NW 0,00 h 0,000 mm 0,0 UV-I 0 W/m 11,4 C 15,4 C 0,0 km/h (0 Bft) 0,00 %
09.06.2015 18:00 15,0 C 81 % 1019,2 hPa 0,0 l/m 2,1 km/h (1 Bft) N 1,00 h 0,000 mm 0,0 UV-I 0 W/m 11,8 C 15,0 C 4,0 km/h (1 Bft) 0,00 %
09.06.2015 19:00 14,5 C 81 % 1020,0 hPa 0,0 l/m 0,0 km/h (0 Bft) N-NO 1,00 h 0,000 mm 0,0 UV-I 0 W/m 11,3 C 14,5 C 0,0 km/h (0 Bft) 0,00 %
09.06.2015 20:00 13,9 C 81 % 1020,8 hPa 0,0 l/m 1,8 km/h (1 Bft) N 0,00 h 0,000 mm 0,0 UV-I 0 W/m 10,7 C 13,9 C 4,0 km/h (1 Bft) 0,00 %
09.06.2015 21:00 13,6 C 85 % 1020,5 hPa 0,0 l/m 0,0 km/h (0 Bft) N 0,00 h 0,000 mm 0,0 UV-I 0 W/m 11,1 C 13,6 C 0,0 km/h (0 Bft) 0,00 %
09.06.2015 22:00 13,3 C 82 % 1021,3 hPa 0,0 l/m 0,0 km/h (0 Bft) N 0,00 h 0,000 mm 0,0 UV-I 0 W/m 10,3 C 13,3 C 0,0 km/h (0 Bft) 0,00 %
09.06.2015 23:00 13,2 C 82 % 1021,3 hPa 0,0 l/m 0,0 km/h (0 Bft) N 0,00 h 0,000 mm 0,0 UV-I 0 W/m 10,2 C 13,2 C 0,0 km/h (0 Bft) 0,00 %
10.06.2015 00:00 12,7 C 84 % 1021,7 hPa 0,0 l/m 0,0 km/h (0 Bft) N 0,00 h 0,000 mm 0,0 UV-I 0 W/m 10,1 C 12,7 C 0,0 km/h (0 Bft) 0,00 %
10.06.2015 01:00 12,3 C 87 % 1021,7 hPa 0,0 l/m 0,0 km/h (0 Bft) NO 0,00 h 0,000 mm 0,0 UV-I 0 W/m 10,2 C 12,3 C 0,0 km/h (0 Bft) 0,00 %
10.06.2015 02:00 12,0 C 86 % 1021,4 hPa 0,0 l/m 3,2 km/h (1 Bft) N 0,00 h 0,000 mm 0,0 UV-I 0 W/m 9,7 C 12,0 C 7,9 km/h (2 Bft) 0,00 %
10.06.2015 03:00 11,9 C 85 % 1020,7 hPa 0,0 l/m 0,0 km/h (0 Bft) N 0,00 h 0,000 mm 0,0 UV-I 0 W/m 9,5 C 11,9 C 4,0 km/h (1 Bft) 0,00 %
10.06.2015 04:00 11,9 C 86 % 1020,7 hPa 0,0 l/m 0,0 km/h (0 Bft) N 0,00 h 0,000 mm 0,0 UV-I 0 W/m 9,6 C 11,9 C 0,0 km/h (0 Bft) 0,00 %
10.06.2015 05:00 12,0 C 87 % 1020,3 hPa 0,0 l/m 0,0 km/h (0 Bft) N 0,00 h 0,000 mm 0,0 UV-I 0 W/m 9,9 C 12,0 C 0,0 km/h (0 Bft) 0,00 %
10.06.2015 06:00 12,2 C 84 % 1021,0 hPa 0,0 l/m 0,0 km/h (0 Bft) N-NO 0,00 h 0,000 mm 0,0 UV-I 0 W/m 9,6 C 12,2 C 0,0 km/h (0 Bft) 0,00 %
10.06.2015 07:00 12,7 C 83 % 1021,2 hPa 0,0 l/m 1,8 km/h (1 Bft) O 0,00 h 0,000 mm 0,0 UV-I 0 W/m 9,9 C 12,7 C 4,0 km/h (1 Bft) 0,00 %
10.06.2015 08:00 13,2 C 83 % 1021,6 hPa 0,0 l/m 4,3 km/h (1 Bft) O 0,00 h 0,000 mm 0,0 UV-I 0 W/m 10,4 C 13,2 C 7,9 km/h (2 Bft) 0,00 %
10.06.2015 09:00 13,4 C 83 % 1021,9 hPa 0,0 l/m 2,9 km/h (1 Bft) S-SW 0,00 h 0,000 mm 0,0 UV-I 0 W/m 10,6 C 13,4 C 4,0 km/h (1 Bft) 0,00 %
10.06.2015 10:00 13,9 C 80 % 1021,5 hPa 0,0 l/m 7,9 km/h (2 Bft) SO 0,00 h 0,000 mm 0,0 UV-I 0 W/m 10,5 C 13,0 C 11,9 km/h (2 Bft) 0,00 %
10.06.2015 11:00 15,2 C 74 % 1020,9 hPa 0,0 l/m 10,5 km/h (2 Bft) O 0,00 h 0,000 mm 0,0 UV-I 0 W/m 10,6 C 13,1 C 15,8 km/h (3 Bft) 0,00 %
10.06.2015 12:00 16,6 C 71 % 1020,6 hPa 0,0 l/m 9,0 km/h (2 Bft) S-SO 1,00 h 0,000 mm 0,0 UV-I 0 W/m 11,3 C 15,3 C 15,8 km/h (3 Bft) 0,00 %
10.06.2015 13:00 18,2 C 62 % 1020,1 hPa 0,0 l/m 9,7 km/h (2 Bft) N 1,00 h 0,000 mm 0,0 UV-I 0 W/m 10,8 C 16,8 C 11,9 km/h (2 Bft) 0,00 %
10.06.2015 14:00 18,4 C 64 % 1019,3 hPa 0,0 l/m 0,0 km/h (0 Bft) N 0,00 h 0,000 mm 0,0 UV-I 0 W/m 11,5 C 18,4 C 0,0 km/h (0 Bft) 0,00 %
10.06.2015 15:00 21,0 C 54 % 1018,6 hPa 0,0 l/m 0,3 km/h (0 Bft) N 1,00 h 0,000 mm 0,0 UV-I 0 W/m 11,3 C 21,0 C 4,0 km/h (1 Bft) 0,00 %
10.06.2015 16:00 19,7 C 64 % 1018,5 hPa 0,0 l/m 0,0 km/h (0 Bft) N 0,00 h 0,000 mm 0,0 UV-I 0 W/m 12,7 C 19,7 C 0,0 km/h (0 Bft) 0,00 %
10.06.2015 17:00 22,1 C 55 % 1017,7 hPa 0,0 l/m 0,0 km/h (0 Bft) N 1,00 h 0,000 mm 0,0 UV-I 0 W/m 12,6 C 22,1 C 0,0 km/h (0 Bft) 0,00 %
10.06.2015 18:00 21,1 C 59 % 1017,1 hPa 0,0 l/m 0,0 km/h (0 Bft) N 1,00 h 0,000 mm 0,0 UV-I 0 W/m 12,8 C 21,1 C 0,0 km/h (0 Bft) 0,00 %
10.06.2015 19:00 21,4 C 60 % 1017,1 hPa 0,0 l/m 0,0 km/h (0 Bft) N 1,00 h 0,000 mm 0,0 UV-I 0 W/m 13,3 C 21,4 C 0,0 km/h (0 Bft) 0,00 %
10.06.2015 20:00 19,2 C 70 % 1017,8 hPa 0,0 l/m 0,0 km/h (0 Bft) N 1,00 h 0,000 mm 0,0 UV-I 0 W/m 13,6 C 19,2 C 0,0 km/h (0 Bft) 0,00 %
10.06.2015 21:00 17,3 C 81 % 1018,4 hPa 0,0 l/m 0,0 km/h (0 Bft) N 0,00 h 0,000 mm 0,0 UV-I 0 W/m 14,0 C 17,3 C 0,0 km/h (0 Bft) 0,00 %
10.06.2015 22:00 16,0 C 82 % 1019,1 hPa 0,0 l/m 0,0 km/h (0 Bft) N 0,00 h 0,000 mm 0,0 UV-I 0 W/m 12,9 C 16,0 C 0,0 km/h (0 Bft) 0,00 %
10.06.2015 23:00 15,0 C 88 % 1019,5 hPa 0,0 l/m 0,0 km/h (0 Bft) N 0,00 h 0,000 mm 0,0 UV-I 0 W/m 13,0 C 15,0 C 0,0 km/h (0 Bft) 0,00 %
11.06.2015 00:00 15,1 C 89 % 1020,2 hPa 0,0 l/m 0,0 km/h (0 Bft) N 0,00 h 0,000 mm 0,0 UV-I 0 W/m 13,3 C 15,1 C 0,0 km/h (0 Bft) 0,00 %
11.06.2015 01:00 15,6 C 80 % 1019,5 hPa 0,0 l/m 0,3 km/h (0 Bft) SO 0,00 h 0,000 mm 0,0 UV-I 0 W/m 12,2 C 15,6 C 4,0 km/h (1 Bft) 0,00 %
11.06.2015 02:00 15,3 C 80 % 1019,9 hPa 0,0 l/m 1,4 km/h (1 Bft) SO 0,00 h 0,000 mm 0,0 UV-I 0 W/m 11,9 C 15,3 C 4,0 km/h (1 Bft) 0,00 %
11.06.2015 03:00 15,1 C 81 % 1019,2 hPa 0,0 l/m 1,8 km/h (1 Bft) SO 0,00 h 0,000 mm 0,0 UV-I 0 W/m 11,9 C 15,1 C 4,0 km/h (1 Bft) 0,00 %
11.06.2015 04:00 14,7 C 80 % 1019,3 hPa 0,0 l/m 1,4 km/h (1 Bft) O 0,00 h 0,000 mm 0,0 UV-I 0 W/m 11,3 C 14,7 C 4,0 km/h (1 Bft) 0,00 %
11.06.2015 05:00 14,2 C 80 % 1019,3 hPa 0,0 l/m 6,4 km/h (2 Bft) SO 0,00 h 0,000 mm 0,0 UV-I 0 W/m 10,8 C 14,2 C 7,9 km/h (2 Bft) 0,00 %
11.06.2015 06:00 14,2 C 78 % 1019,3 hPa 0,0 l/m 1,4 km/h (1 Bft) S-SO 0,00 h 0,000 mm 0,0 UV-I 0 W/m 10,4 C 14,2 C 4,0 km/h (1 Bft) 0,00 %
11.06.2015 07:00 15,2 C 70 % 1018,5 hPa 0,0 l/m 10,5 km/h (2 Bft) O 1,00 h 0,000 mm 0,0 UV-I 0 W/m 9,8 C 13,1 C 11,9 km/h (2 Bft) 0,00 %
11.06.2015 08:00 15,4 C 71 % 1018,8 hPa 0,0 l/m 8,2 km/h (2 Bft) SO 1,00 h 0,000 mm 0,0 UV-I 0 W/m 10,2 C 14,4 C 11,9 km/h (2 Bft) 0,00 %
11.06.2015 09:00 17,2 C 66 % 1018,9 hPa 0,0 l/m 7,9 km/h (2 Bft) O 1,00 h 0,000 mm 0,0 UV-I 0 W/m 10,8 C 16,5 C 7,9 km/h (2 Bft) 0,00 %
11.06.2015 10:00 18,0 C 63 % 1018,8 hPa 0,0 l/m 1,8 km/h (1 Bft) SO 1,00 h 0,000 mm 0,0 UV-I 0 W/m 10,8 C 18,0 C 4,0 km/h (1 Bft) 0,00 %
11.06.2015 11:00 19,8 C 60 % 1017,8 hPa 0,0 l/m 7,2 km/h (2 Bft) O 1,00 h 0,000 mm 0,0 UV-I 0 W/m 11,8 C 19,5 C 15,8 km/h (3 Bft) 0,00 %
11.06.2015 12:00 21,1 C 54 % 1017,2 hPa 0,0 l/m 9,7 km/h (2 Bft) O 1,00 h 0,000 mm 0,0 UV-I 0 W/m 11,4 C 19,9 C 15,8 km/h (3 Bft) 0,00 %
11.06.2015 13:00 20,9 C 59 % 1016,5 hPa 0,0 l/m 6,4 km/h (2 Bft) N 1,00 h 0,000 mm 0,0 UV-I 0 W/m 12,6 C 20,9 C 11,9 km/h (2 Bft) 0,00 %
11.06.2015 14:00 22,3 C 55 % 1015,6 hPa 0,0 l/m 0,0 km/h (0 Bft) N 1,00 h 0,000 mm 0,0 UV-I 0 W/m 12,8 C 22,3 C 0,0 km/h (0 Bft) 0,00 %
11.06.2015 15:00 24,3 C 49 % 1014,7 hPa 0,0 l/m 0,3 km/h (0 Bft) O-NO 1,00 h 0,000 mm 0,0 UV-I 0 W/m 12,9 C 24,3 C 4,0 km/h (1 Bft) 0,00 %
11.06.2015 16:00 24,2 C 49 % 1014,0 hPa 0,0 l/m 2,1 km/h (1 Bft) SW 1,00 h 0,000 mm 0,0 UV-I 0 W/m 12,8 C 24,2 C 4,0 km/h (1 Bft) 0,00 %
11.06.2015 17:00 25,4 C 49 % 1013,5 hPa 0,0 l/m 2,1 km/h (1 Bft) N 1,00 h 0,000 mm 0,0 UV-I 0 W/m 13,9 C 25,4 C 4,0 km/h (1 Bft) 0,00 %
11.06.2015 18:00 23,7 C 53 % 1013,3 hPa 0,0 l/m 0,6 km/h (0 Bft) N 1,00 h 0,000 mm 0,0 UV-I 0 W/m 13,5 C 23,7 C 4,0 km/h (1 Bft) 0,00 %
11.06.2015 19:00 21,8 C 61 % 1013,3 hPa 0,0 l/m 0,0 km/h (0 Bft) N 0,00 h 0,000 mm 0,0 UV-I 0 W/m 13,9 C 21,8 C 0,0 km/h (0 Bft) 0,00 %
11.06.2015 20:00 20,9 C 64 % 1013,4 hPa 0,0 l/m 0,0 km/h (0 Bft) N 0,00 h 0,000 mm 0,0 UV-I 0 W/m 13,8 C 20,9 C 0,0 km/h (0 Bft) 0,00 %
11.06.2015 21:00 20,0 C 73 % 1013,5 hPa 0,0 l/m 0,0 km/h (0 Bft) N 0,00 h 0,000 mm 0,0 UV-I 0 W/m 15,0 C 20,0 C 0,0 km/h (0 Bft) 0,00 %
11.06.2015 22:00 18,9 C 80 % 1014,4 hPa 0,0 l/m 0,0 km/h (0 Bft) N 0,00 h 0,000 mm 0,0 UV-I 0 W/m 15,4 C 18,9 C 0,0 km/h (0 Bft) 0,00 %
11.06.2015 23:00 18,4 C 83 % 1014,1 hPa 0,0 l/m 0,0 km/h (0 Bft) N 0,00 h 0,000 mm 0,0 UV-I 0 W/m 15,5 C 18,4 C 0,0 km/h (0 Bft) 0,00 %
12.06.2015 00:00 17,4 C 88 % 1013,2 hPa 0,0 l/m 0,3 km/h (0 Bft) N 0,00 h 0,000 mm 0,0 UV-I 0 W/m 15,4 C 17,4 C 4,0 km/h (1 Bft) 0,00 %
12.06.2015 01:00 16,3 C 91 % 1013,1 hPa 0,3 l/m 0,0 km/h (0 Bft) N 0,00 h 0,000 mm 0,0 UV-I 0 W/m 14,8 C 16,3 C 0,0 km/h (0 Bft) 0,00 %
12.06.2015 02:00 15,3 C 94 % 1012,5 hPa 0,3 l/m 0,0 km/h (0 Bft) N 0,00 h 0,000 mm 0,0 UV-I 0 W/m 14,3 C 15,3 C 0,0 km/h (0 Bft) 0,00 %
12.06.2015 03:00 14,6 C 97 % 1012,6 hPa 0,0 l/m 0,0 km/h (0 Bft) N 0,00 h 0,000 mm 0,0 UV-I 0 W/m 14,1 C 14,6 C 0,0 km/h (0 Bft) 0,00 %
12.06.2015 04:00 13,9 C 97 % 1012,7 hPa 0,0 l/m 0,0 km/h (0 Bft) N 0,00 h 0,000 mm 0,0 UV-I 0 W/m 13,4 C 13,9 C 0,0 km/h (0 Bft) 0,00 %
12.06.2015 05:00 13,4 C 99 % 1012,8 hPa 0,0 l/m 0,0 km/h (0 Bft) N 0,00 h 0,000 mm 0,0 UV-I 0 W/m 13,2 C 13,4 C 0,0 km/h (0 Bft) 0,00 %
12.06.2015 06:00 14,3 C 98 % 1012,2 hPa 0,0 l/m 0,0 km/h (0 Bft) N 1,00 h 0,000 mm 0,0 UV-I 0 W/m 14,0 C 14,3 C 0,0 km/h (0 Bft) 0,00 %
12.06.2015 07:00 18,6 C 74 % 1012,0 hPa 0,0 l/m 0,0 km/h (0 Bft) N 1,00 h 0,000 mm 0,0 UV-I 0 W/m 13,9 C 18,6 C 0,0 km/h (0 Bft) 0,00 %
12.06.2015 08:00 19,1 C 74 % 1012,2 hPa 0,0 l/m 0,0 km/h (0 Bft) SW 1,00 h 0,000 mm 0,0 UV-I 0 W/m 14,4 C 19,1 C 0,0 km/h (0 Bft) 0,00 %
12.06.2015 09:00 21,8 C 66 % 1011,5 hPa 0,0 l/m 1,4 km/h (1 Bft) N 1,00 h 0,000 mm 0,0 UV-I 0 W/m 15,2 C 21,8 C 4,0 km/h (1 Bft) 0,00 %
12.06.2015 10:00 22,6 C 64 % 1011,0 hPa 0,0 l/m 0,0 km/h (0 Bft) N 1,00 h 0,000 mm 0,0 UV-I 0 W/m 15,4 C 22,6 C 0,0 km/h (0 Bft) 0,00 %
12.06.2015 11:00 25,8 C 49 % 1010,5 hPa 0,0 l/m 0,0 km/h (0 Bft) N 1,00 h 0,000 mm 0,0 UV-I 0 W/m 14,3 C 25,8 C 0,0 km/h (0 Bft) 0,00 %
12.06.2015 12:00 25,9 C 51 % 1010,5 hPa 0,0 l/m 0,3 km/h (0 Bft) N 1,00 h 0,000 mm 0,0 UV-I 0 W/m 15,0 C 25,9 C 4,0 km/h (1 Bft) 0,00 %
12.06.2015 13:00 27,3 C 45 % 1010,0 hPa 0,0 l/m 0,0 km/h (0 Bft) N 1,00 h 0,000 mm 0,0 UV-I 0 W/m 14,3 C 27,3 C 0,0 km/h (0 Bft) 0,00 %
12.06.2015 14:00 28,0 C 34 % 1009,2 hPa 0,0 l/m 0,6 km/h (0 Bft) NO 1,00 h 0,000 mm 0,0 UV-I 0 W/m 10,7 C 28,0 C 4,0 km/h (1 Bft) 0,00 %
12.06.2015 15:00 29,7 C 39 % 1008,3 hPa 0,0 l/m 5,8 km/h (2 Bft) N 1,00 h 0,000 mm 0,0 UV-I 0 W/m 14,2 C 29,7 C 7,9 km/h (2 Bft) 0,00 %
12.06.2015 16:00 29,2 C 35 % 1007,9 hPa 0,0 l/m 0,6 km/h (0 Bft) N 1,00 h 0,000 mm 0,0 UV-I 0 W/m 12,1 C 29,2 C 4,0 km/h (1 Bft) 0,00 %
12.06.2015 17:00 28,8 C 36 % 1007,7 hPa 0,0 l/m 0,0 km/h (0 Bft) N 1,00 h 0,000 mm 0,0 UV-I 0 W/m 12,2 C 28,8 C 0,0 km/h (0 Bft) 0,00 %
12.06.2015 18:00 29,3 C 33 % 1006,9 hPa 0,0 l/m 0,0 km/h (0 Bft) N 1,00 h 0,000 mm 0,0 UV-I 0 W/m 11,3 C 29,3 C 0,0 km/h (0 Bft) 0,00 %
12.06.2015 19:00 28,9 C 35 % 1006,2 hPa 0,0 l/m 0,0 km/h (0 Bft) N 1,00 h 0,000 mm 0,0 UV-I 0 W/m 11,9 C 28,9 C 0,0 km/h (0 Bft) 0,00 %
12.06.2015 20:00 28,8 C 41 % 1005,9 hPa 0,0 l/m 0,0 km/h (0 Bft) N 1,00 h 0,000 mm 0,0 UV-I 0 W/m 14,2 C 28,8 C 0,0 km/h (0 Bft) 0,00 %
12.06.2015 21:00 23,5 C 57 % 1006,7 hPa 0,0 l/m 0,0 km/h (0 Bft) N 0,00 h 0,000 mm 0,0 UV-I 0 W/m 14,5 C 23,5 C 0,0 km/h (0 Bft) 0,00 %
12.06.2015 22:00 20,9 C 68 % 1007,8 hPa 0,0 l/m 0,0 km/h (0 Bft) N 0,00 h 0,000 mm 0,0 UV-I 0 W/m 14,8 C 20,9 C 0,0 km/h (0 Bft) 0,00 %
12.06.2015 23:00 19,2 C 73 % 1008,3 hPa 0,0 l/m 0,0 km/h (0 Bft) N 0,00 h 0,000 mm 0,0 UV-I 0 W/m 14,2 C 19,2 C 0,0 km/h (0 Bft) 0,00 %
13.06.2015 00:00 18,6 C 78 % 1008,1 hPa 0,0 l/m 0,0 km/h (0 Bft) N 0,00 h 0,000 mm 0,0 UV-I 0 W/m 14,7 C 18,6 C 0,0 km/h (0 Bft) 0,00 %
13.06.2015 01:00 17,9 C 79 % 1007,8 hPa 0,0 l/m 0,0 km/h (0 Bft) N 0,00 h 0,000 mm 0,0 UV-I 0 W/m 14,2 C 17,9 C 0,0 km/h (0 Bft) 0,00 %
13.06.2015 02:00 16,3 C 87 % 1008,0 hPa 0,0 l/m 0,0 km/h (0 Bft) N 0,00 h 0,000 mm 0,0 UV-I 0 W/m 14,1 C 16,3 C 0,0 km/h (0 Bft) 0,00 %
13.06.2015 03:00 16,1 C 85 % 1007,8 hPa 0,0 l/m 0,0 km/h (0 Bft) N 0,00 h 0,000 mm 0,0 UV-I 0 W/m 13,6 C 16,1 C 0,0 km/h (0 Bft) 0,00 %
13.06.2015 04:00 14,9 C 90 % 1007,9 hPa 0,0 l/m 0,0 km/h (0 Bft) N 0,00 h 0,000 mm 0,0 UV-I 0 W/m 13,3 C 14,9 C 0,0 km/h (0 Bft) 0,00 %
13.06.2015 05:00 14,5 C 90 % 1007,6 hPa 0,0 l/m 0,0 km/h (0 Bft) N 0,00 h 0,000 mm 0,0 UV-I 0 W/m 12,9 C 14,5 C 0,0 km/h (0 Bft) 0,00 %
13.06.2015 06:00 15,5 C 83 % 1008,2 hPa 0,0 l/m 0,0 km/h (0 Bft) N 1,00 h 0,000 mm 0,0 UV-I 0 W/m 12,6 C 15,5 C 0,0 km/h (0 Bft) 0,00 %
13.06.2015 07:00 20,7 C 61 % 1007,1 hPa 0,0 l/m 0,0 km/h (0 Bft) N 1,00 h 0,000 mm 0,0 UV-I 0 W/m 12,9 C 20,7 C 0,0 km/h (0 Bft) 0,00 %
13.06.2015 08:00 21,7 C 63 % 1007,2 hPa 0,0 l/m 0,6 km/h (0 Bft) O 1,00 h 0,000 mm 0,0 UV-I 0 W/m 14,3 C 21,7 C 4,0 km/h (1 Bft) 0,00 %
13.06.2015 09:00 24,4 C 53 % 1007,3 hPa 0,0 l/m 4,7 km/h (1 Bft) N 1,00 h 0,000 mm 0,0 UV-I 0 W/m 14,2 C 24,4 C 7,9 km/h (2 Bft) 0,00 %
13.06.2015 10:00 24,8 C 53 % 1007,2 hPa 0,0 l/m 0,0 km/h (0 Bft) N 1,00 h 0,000 mm 0,0 UV-I 0 W/m 14,6 C 24,8 C 0,0 km/h (0 Bft) 0,00 %
13.06.2015 11:00 27,3 C 50 % 1006,9 hPa 0,0 l/m 0,3 km/h (0 Bft) N 1,00 h 0,000 mm 0,0 UV-I 0 W/m 15,9 C 27,3 C 4,0 km/h (1 Bft) 0,00 %
13.06.2015 12:00 28,4 C 43 % 1006,7 hPa 0,0 l/m 0,0 km/h (0 Bft) SW 1,00 h 0,000 mm 0,0 UV-I 0 W/m 14,6 C 28,4 C 0,0 km/h (0 Bft) 0,00 %
13.06.2015 13:00 27,9 C 42 % 1006,4 hPa 0,0 l/m 1,8 km/h (1 Bft) N 0,00 h 0,000 mm 0,0 UV-I 0 W/m 13,8 C 27,9 C 4,0 km/h (1 Bft) 0,00 %
13.06.2015 14:00 31,2 C 38 % 1005,9 hPa 0,0 l/m 0,0 km/h (0 Bft) N 1,00 h 0,000 mm 0,0 UV-I 0 W/m 15,2 C 31,2 C 0,0 km/h (0 Bft) 0,00 %
13.06.2015 15:00 29,7 C 39 % 1005,8 hPa 0,0 l/m 0,0 km/h (0 Bft) N 1,00 h 0,000 mm 0,0 UV-I 0 W/m 14,2 C 29,7 C 0,0 km/h (0 Bft) 0,00 %
13.06.2015 16:00 28,2 C 42 % 1006,0 hPa 0,0 l/m 0,6 km/h (0 Bft) N 0,00 h 0,000 mm 0,0 UV-I 0 W/m 14,0 C 28,2 C 4,0 km/h (1 Bft) 0,00 %
13.06.2015 17:00 22,7 C 63 % 1007,8 hPa 0,0 l/m 0,0 km/h (0 Bft) N 0,00 h 0,000 mm 0,0 UV-I 0 W/m 15,3 C 22,7 C 0,0 km/h (0 Bft) 0,00 %
13.06.2015 18:00 20,9 C 72 % 1007,4 hPa 0,0 l/m 0,0 km/h (0 Bft) N 0,00 h 0,000 mm 0,0 UV-I 0 W/m 15,7 C 20,9 C 0,0 km/h (0 Bft) 0,00 %
13.06.2015 19:00 20,4 C 72 % 1007,4 hPa 0,0 l/m 0,0 km/h (0 Bft) W-SW 0,00 h 0,000 mm 0,0 UV-I 0 W/m 15,2 C 20,4 C 0,0 km/h (0 Bft) 0,00 %
13.06.2015 20:00 21,7 C 67 % 1007,2 hPa 0,0 l/m 1,4 km/h (1 Bft) N 1,00 h 0,000 mm 0,0 UV-I 0 W/m 15,3 C 21,7 C 4,0 km/h (1 Bft) 0,00 %
13.06.2015 21:00 19,5 C 78 % 1006,9 hPa 0,0 l/m 0,0 km/h (0 Bft) N 0,00 h 0,000 mm 0,0 UV-I 0 W/m 15,6 C 19,5 C 0,0 km/h (0 Bft) 0,00 %
13.06.2015 22:00 18,7 C 78 % 1007,7 hPa 0,0 l/m 0,0 km/h (0 Bft) N 0,00 h 0,000 mm 0,0 UV-I 0 W/m 14,8 C 18,7 C 0,0 km/h (0 Bft) 0,00 %
13.06.2015 23:00 18,9 C 73 % 1008,1 hPa 0,0 l/m 0,0 km/h (0 Bft) N 0,00 h 0,000 mm 0,0 UV-I 0 W/m 13,9 C 18,9 C 0,0 km/h (0 Bft) 0,00 %
14.06.2015 00:00 18,1 C 81 % 1010,0 hPa 0,0 l/m 0,0 km/h (0 Bft) O-SO 0,00 h 0,000 mm 0,0 UV-I 0 W/m 14,8 C 18,1 C 0,0 km/h (0 Bft) 0,00 %
14.06.2015 01:00 17,4 C 87 % 1008,9 hPa 0,0 l/m 1,4 km/h (1 Bft) N 0,00 h 0,000 mm 0,0 UV-I 0 W/m 15,2 C 17,4 C 4,0 km/h (1 Bft) 0,00 %
14.06.2015 02:00 16,7 C 92 % 1010,2 hPa 0,0 l/m 0,0 km/h (0 Bft) N 0,00 h 0,000 mm 0,0 UV-I 0 W/m 15,4 C 16,7 C 0,0 km/h (0 Bft) 0,00 %
14.06.2015 03:00 16,9 C 93 % 1009,0 hPa 0,0 l/m 0,0 km/h (0 Bft) N 0,00 h 0,000 mm 0,0 UV-I 0 W/m 15,8 C 16,9 C 0,0 km/h (0 Bft) 0,00 %
14.06.2015 04:00 16,0 C 93 % 1009,1 hPa 0,0 l/m 0,0 km/h (0 Bft) N 0,00 h 0,000 mm 0,0 UV-I 0 W/m 14,9 C 16,0 C 0,0 km/h (0 Bft) 0,00 %
14.06.2015 05:00 15,4 C 96 % 1009,2 hPa 0,0 l/m 0,0 km/h (0 Bft) N 0,00 h 0,000 mm 0,0 UV-I 0 W/m 14,8 C 15,4 C 0,0 km/h (0 Bft) 0,00 %
14.06.2015 06:00 16,5 C 92 % 1009,1 hPa 0,0 l/m 0,0 km/h (0 Bft) N 1,00 h 0,000 mm 0,0 UV-I 0 W/m 15,2 C 16,5 C 0,0 km/h (0 Bft) 0,00 %
14.06.2015 07:00 20,1 C 71 % 1008,9 hPa 0,0 l/m 0,0 km/h (0 Bft) N 1,00 h 0,000 mm 0,0 UV-I 0 W/m 14,7 C 20,1 C 0,0 km/h (0 Bft) 0,00 %
14.06.2015 08:00 22,7 C 64 % 1008,6 hPa 0,0 l/m 0,0 km/h (0 Bft) N 1,00 h 0,000 mm 0,0 UV-I 0 W/m 15,5 C 22,7 C 0,0 km/h (0 Bft) 0,00 %
14.06.2015 09:00 23,5 C 60 % 1007,7 hPa 0,0 l/m 0,0 km/h (0 Bft) N 1,00 h 0,000 mm 0,0 UV-I 0 W/m 15,3 C 23,5 C 0,0 km/h (0 Bft) 0,00 %
14.06.2015 10:00 25,0 C 59 % 1007,2 hPa 0,0 l/m 0,0 km/h (0 Bft) O 1,00 h 0,000 mm 0,0 UV-I 0 W/m 16,4 C 25,0 C 0,0 km/h (0 Bft) 0,00 %
14.06.2015 11:00 25,3 C 54 % 1007,6 hPa 0,0 l/m 4,3 km/h (1 Bft) N 1,00 h 0,000 mm 0,0 UV-I 0 W/m 15,3 C 25,3 C 7,9 km/h (2 Bft) 0,00 %
14.06.2015 12:00 25,2 C 51 % 1007,6 hPa 0,0 l/m 2,9 km/h (1 Bft) O-SO 1,00 h 0,000 mm 0,0 UV-I 0 W/m 14,3 C 25,2 C 7,9 km/h (2 Bft) 0,00 %
14.06.2015 13:00 25,8 C 51 % 1006,8 hPa 0,0 l/m 1,4 km/h (1 Bft) N 0,00 h 0,000 mm 0,0 UV-I 0 W/m 14,9 C 25,8 C 4,0 km/h (1 Bft) 0,00 %
14.06.2015 14:00 27,2 C 48 % 1005,9 hPa 0,0 l/m 0,0 km/h (0 Bft) N 1,00 h 0,000 mm 0,0 UV-I 0 W/m 15,2 C 27,2 C 0,0 km/h (0 Bft) 0,00 %
14.06.2015 15:00 28,1 C 49 % 1005,4 hPa 0,0 l/m 0,0 km/h (0 Bft) N 1,00 h 0,000 mm 0,0 UV-I 0 W/m 16,4 C 28,1 C 0,0 km/h (0 Bft) 0,00 %
14.06.2015 16:00 27,3 C 47 % 1004,5 hPa 0,0 l/m 0,0 km/h (0 Bft) N 1,00 h 0,000 mm 0,0 UV-I 0 W/m 15,0 C 27,3 C 0,0 km/h (0 Bft) 0,00 %
14.06.2015 17:00 27,0 C 36 % 1003,8 hPa 0,0 l/m 0,3 km/h (0 Bft) N 1,00 h 0,000 mm 0,0 UV-I 0 W/m 10,6 C 27,0 C 4,0 km/h (1 Bft) 0,00 %
14.06.2015 18:00 26,8 C 34 % 1002,8 hPa 0,0 l/m 0,0 km/h (0 Bft) N 1,00 h 0,000 mm 0,0 UV-I 0 W/m 9,6 C 26,8 C 0,0 km/h (0 Bft) 0,00 %
14.06.2015 19:00 26,1 C 34 % 1003,3 hPa 0,0 l/m 0,0 km/h (0 Bft) N 1,00 h 0,000 mm 0,0 UV-I 0 W/m 9,0 C 26,1 C 0,0 km/h (0 Bft) 0,00 %
14.06.2015 20:00 24,9 C 39 % 1003,0 hPa 0,0 l/m 0,0 km/h (0 Bft) N 1,00 h 0,000 mm 0,0 UV-I 0 W/m 10,0 C 24,9 C 0,0 km/h (0 Bft) 0,00 %
14.06.2015 21:00 20,1 C 57 % 1004,1 hPa 0,0 l/m 0,0 km/h (0 Bft) N 0,00 h 0,000 mm 0,0 UV-I 0 W/m 11,3 C 20,1 C 0,0 km/h (0 Bft) 0,00 %
14.06.2015 22:00 18,5 C 77 % 1005,0 hPa 0,0 l/m 0,0 km/h (0 Bft) N 0,00 h 0,000 mm 0,0 UV-I 0 W/m 14,4 C 18,5 C 0,0 km/h (0 Bft) 0,00 %
14.06.2015 23:00 16,6 C 81 % 1005,3 hPa 0,0 l/m 0,0 km/h (0 Bft) N 0,00 h 0,000 mm 0,0 UV-I 0 W/m 13,3 C 16,6 C 0,0 km/h (0 Bft) 0,00 %
Min-Datum _ 10.06.15 12.06.15 14.06.15 - 08.06.15 - - - - - 14.06.15 10.06.15 08.06.15 08.06.15
_ Min-Zeit 03:00 18:00 18:00 - 00:00 - - - - - 19:00 03:00 00:00 00:00
Minimum _ 11,9 C 33 % 1002,8 hPa - 0,0 km/h (0 Bft) - - - - - 9,0 C 11,9 C 0,0 km/h (0 Bft) 0,00 %
Max-Datum _ 13.06.15 09.06.15 10.06.15 08.06.15 10.06.15 - 08.06.15 08.06.15 12.06.15 13.06.15 14.06.15 13.06.15 10.06.15 08.06.15
_ Max-Zeit 14:00 01:00 09:00 22:00 11:00 - 06:00 00:00 13:00 14:00 10:00 14:00 11:00 00:00
Maximum _ 31,2 C 99 % 1021,9 hPa 29,2 l/m 10,5 km/h
O (2 Bft)
- 1,00 h 0,000 mm 6,0 UV-I 1113 W/m 16,4 C 31,2 C 15,8 km/h
O (3 Bft)
0,00 %
Durchschnitt _ 19,4 C 71 % 1013,8 hPa #46,7 l/m 1,1 km/h (1 Bft) O #69:00 h #0,000 mm 0,0 UV-I 0 W/m 13,3 C 19,3 C 2,2 km/h (1 Bft) 0,00 %